Montevideo, MN

12:11 PM CDT on June 29, 2017 (GMT -0500)
Montevideo-Chippewa County

Weather History for KMVE - December, 2012

Change the Weather History Date:

Monday, December 10, 2012

  Actual Average Record
Temperature  
Mean Temperature -2 °F -  
Max Temperature 6 °F 26 °F 53 °F (2002)
Min Temperature -9 °F 10 °F -22 °F (1977)
Degree Days  
Heating Degree Days 66    
Moisture  
Dew Point -6 °F    
Average Humidity 83    
Maximum Humidity 92    
Minimum Humidity 66    
Precipitation  
Precipitation 0.00 in - - ()
Sea Level Pressure  
Sea Level Pressure 29.94 in    
Wind  
Wind Speed 10 mph (West)    
Max Wind Speed 21 mph    
Max Gust Speed 26 mph    
Visibility 9 miles    
Events Snow    
Averages and records for this station are not official NWS values.
T = Trace of Precipitation, MM = Missing Value Source: NWS Daily Summary

Daily Weather History Graph

Daily Weather History Graph

Search for Another Location

Airport or City:

Trip Planner

Search our weather history database for the weather conditions in past years. The results will help you decide how hot, cold, wet, or windy it might be!

Date:

Astronomy

Dec. 10, 2012 Rise Set
Actual Time 7:50 AM CST 4:41 PM CST
Civil Twilight 7:16 AM CST 5:14 PM CST
Nautical Twilight 6:39 AM CST 5:51 PM CST
Astronomical Twilight 6:04 AM CST 6:27 PM CST
Moon 4:30 AM CST (12/10) 2:35 PM CST (12/10)
Length of Visible Light 9h 58m
Length of Day
8h 50m
Waning Crescent, 10% of the Moon is Illuminated
Dec 10
Waning Crescent
Dec 13
New
Dec 19
First Quarter
Dec 28
Full
Jan 4
Last Quarter

Hourly Weather History & Observations

Time (CST) Temp. Windchill Dew Point Humidity Pressure Visibility Wind Dir Wind Speed Gust Speed Precip Events Conditions
12:14 AM -0.4 °F -21.2 °F -4.0 °F 85% 30.10 in 10.0 mi North 17.3 mph 23.0 mph N/A   Overcast
12:34 AM -0.4 °F -21.2 °F -4.0 °F 85% 30.09 in 10.0 mi North 17.3 mph 23.0 mph N/A   Overcast
12:54 AM -0.4 °F -22.8 °F -4.0 °F 85% 30.09 in 10.0 mi North 20.7 mph 26.5 mph N/A   Overcast
1:14 AM -0.4 °F -21.7 °F -5.8 °F 78% 30.08 in 10.0 mi North 18.4 mph - N/A   Overcast
1:34 AM -2.2 °F -22.9 °F -5.8 °F 85% 30.07 in 10.0 mi North 16.1 mph - N/A   Overcast
1:54 AM -2.2 °F -23.5 °F -5.8 °F 85% 30.07 in 10.0 mi North 17.3 mph 21.9 mph N/A   Mostly Cloudy
2:14 AM -4.0 °F -22.1 °F -7.6 °F 85% 30.07 in 10.0 mi NNW 11.5 mph - N/A   Scattered Clouds
2:54 AM -5.8 °F -25.2 °F -7.6 °F 92% 30.07 in 10.0 mi North 12.7 mph - N/A   Clear
3:14 AM -5.8 °F -23.4 °F -9.4 °F 84% 30.07 in 10.0 mi North 10.4 mph - N/A   Clear
3:34 AM -5.8 °F -25.2 °F -9.4 °F 84% 30.06 in 10.0 mi NNW 12.7 mph - N/A   Clear
3:54 AM -5.8 °F -23.4 °F -9.4 °F 84% 30.06 in 10.0 mi NNW 10.4 mph - N/A   Clear
4:14 AM -7.6 °F -25.7 °F -9.4 °F 92% 30.06 in 10.0 mi NNW 10.4 mph - N/A   Clear
4:34 AM -7.6 °F -24.6 °F -9.4 °F 92% 30.05 in 10.0 mi North 9.2 mph - N/A   Clear
4:54 AM -7.6 °F -23.4 °F -11.2 °F 84% 30.05 in 10.0 mi North 8.1 mph - N/A   Clear
5:14 AM -7.6 °F -23.4 °F -11.2 °F 84% 30.04 in 10.0 mi North 8.1 mph - N/A   Clear
5:34 AM -7.6 °F -20.6 °F -11.2 °F 84% 30.04 in 10.0 mi NNW 5.8 mph - N/A   Clear
5:54 AM -7.6 °F -22.1 °F -11.2 °F 84% 30.03 in 10.0 mi NNW 6.9 mph - N/A   Clear
6:14 AM -7.6 °F -23.4 °F -11.2 °F 84% 30.03 in 10.0 mi NNW 8.1 mph - N/A   Clear
6:34 AM -7.6 °F -23.4 °F -11.2 °F 84% 30.03 in 10.0 mi NNW 8.1 mph - N/A   Clear
6:54 AM -7.6 °F -24.6 °F -11.2 °F 84% 30.02 in 10.0 mi NNW 9.2 mph - N/A   Clear
7:14 AM -7.6 °F -24.6 °F -11.2 °F 84% 30.02 in 10.0 mi NW 9.2 mph - N/A   Clear
7:34 AM -7.6 °F -22.1 °F -11.2 °F 84% 30.02 in 10.0 mi NW 6.9 mph - N/A   Clear
7:54 AM -9.4 °F -25.6 °F -11.2 °F 92% 30.03 in 10.0 mi NW 8.1 mph - N/A   Clear
8:14 AM -9.4 °F -25.6 °F -11.2 °F 92% 30.02 in 10.0 mi NW 8.1 mph - N/A   Clear
8:34 AM -7.6 °F -20.6 °F -11.2 °F 84% 30.02 in 10.0 mi NW 5.8 mph - N/A   Clear
8:54 AM -7.6 °F -18.8 °F -9.4 °F 92% 30.01 in 10.0 mi NNW 4.6 mph - N/A   Clear
9:14 AM -5.8 °F -14.5 °F -9.4 °F 84% 30.00 in 10.0 mi North 3.5 mph - N/A   Clear
9:34 AM -5.8 °F - -9.4 °F 84% 30.00 in 10.0 mi Calm Calm - N/A   Clear
9:54 AM -5.8 °F - -7.6 °F 92% 30.00 in 10.0 mi Calm Calm - N/A   Clear
10:13 AM -4.0 °F - -7.6 °F 85% 29.99 in 10.0 mi Calm Calm - N/A   Clear
10:34 AM -2.2 °F -10.4 °F -5.8 °F 85% 29.99 in 4.0 mi NNW 3.5 mph - N/A   Clear
10:54 AM -2.2 °F - -7.6 °F 78% 29.98 in 10.0 mi Calm Calm - N/A   Clear
11:14 AM -0.4 °F -14.7 °F -5.8 °F 78% 29.99 in 10.0 mi WNW 8.1 mph - N/A   Clear
11:34 AM -0.4 °F -10.4 °F -5.8 °F 78% 29.99 in 10.0 mi West 4.6 mph - N/A   Clear
11:54 AM -0.4 °F -8.3 °F -5.8 °F 78% 29.97 in 10.0 mi SW 3.5 mph - N/A   Clear
12:14 PM -0.4 °F - -5.8 °F 78% 29.96 in 10.0 mi Calm Calm - N/A   Clear
12:34 PM 1.4 °F - -4.0 °F 78% 29.94 in 10.0 mi Calm Calm - N/A   Clear
12:54 PM 1.4 °F - -4.0 °F 78% 29.94 in 10.0 mi Calm Calm - N/A   Clear
1:14 PM 3.2 °F - -4.0 °F 72% 29.93 in 10.0 mi Calm Calm - N/A   Clear
1:34 PM 1.4 °F -8.3 °F -2.2 °F 85% 29.92 in 10.0 mi South 4.6 mph - N/A   Clear
1:53 PM 3.2 °F -4.2 °F -4.0 °F 72% 29.91 in 10.0 mi South 3.5 mph - N/A   Clear
2:14 PM 3.2 °F -6.2 °F -4.0 °F 72% 29.90 in 10.0 mi South 4.6 mph - N/A   Clear
2:34 PM 3.2 °F -7.8 °F -5.8 °F 66% 29.88 in 10.0 mi South 5.8 mph - N/A   Clear
2:53 PM 3.2 °F -4.2 °F -4.0 °F 72% 29.88 in 10.0 mi South 3.5 mph - N/A   Clear
3:14 PM 1.4 °F -9.9 °F -4.0 °F 78% 29.87 in 10.0 mi SSE 5.8 mph - N/A   Clear
3:34 PM 1.4 °F -9.9 °F -5.8 °F 72% 29.87 in 10.0 mi South 5.8 mph - N/A   Clear
3:53 PM 1.4 °F -9.9 °F -5.8 °F 72% 29.86 in 10.0 mi South 5.8 mph - N/A   Scattered Clouds
4:14 PM -0.4 °F -12.0 °F -7.6 °F 72% 29.85 in 10.0 mi SSE 5.8 mph - N/A   Scattered Clouds
4:34 PM -0.4 °F -12.0 °F -5.8 °F 78% 29.85 in 10.0 mi SSE 5.8 mph - N/A   Scattered Clouds
4:53 PM -2.2 °F -14.2 °F -7.6 °F 78% 29.86 in 10.0 mi SSE 5.8 mph - N/A   Clear
5:14 PM -2.2 °F -14.2 °F -5.8 °F 85% 29.86 in 10.0 mi South 5.8 mph - N/A   Scattered Clouds
5:34 PM -2.2 °F -16.8 °F -7.6 °F 78% 29.86 in 10.0 mi South 8.1 mph - N/A   Scattered Clouds
5:53 PM -2.2 °F -16.8 °F -7.6 °F 78% 29.85 in 10.0 mi South 8.1 mph - N/A   Scattered Clouds
6:14 PM -2.2 °F -16.8 °F -7.6 °F 78% 29.85 in 10.0 mi South 8.1 mph - N/A   Scattered Clouds
6:34 PM -2.2 °F -14.2 °F -7.6 °F 78% 29.84 in 10.0 mi South 5.8 mph - N/A   Scattered Clouds
6:53 PM -2.2 °F -14.2 °F -7.6 °F 78% 29.84 in 10.0 mi South 5.8 mph - N/A   Mostly Cloudy
7:14 PM -2.2 °F -15.6 °F -7.6 °F 78% 29.84 in 10.0 mi South 6.9 mph - N/A   Overcast
7:34 PM -2.2 °F -16.8 °F -5.8 °F 85% 29.83 in 10.0 mi South 8.1 mph - N/A   Overcast
7:53 PM 1.4 °F -11.3 °F -2.2 °F 85% 29.83 in 5.0 mi South 6.9 mph - N/A Snow Light Snow
8:14 PM 3.2 °F -6.2 °F -0.4 °F 85% 29.83 in 1.5 mi South 4.6 mph - N/A Snow Light Snow
8:53 PM 3.2 °F -6.2 °F 1.4 °F 92% 29.82 in 2.0 mi South 4.6 mph - N/A Snow Light Snow
9:14 PM 5.0 °F -2.1 °F 3.2 °F 92% 29.82 in 1.5 mi South 3.5 mph - N/A Snow Light Snow
9:34 PM 5.0 °F -2.1 °F 3.2 °F 92% 29.82 in 2.5 mi South 3.5 mph - N/A Snow Light Snow
9:53 PM 6.8 °F -2.0 °F 3.2 °F 85% 29.81 in 2.5 mi SSW 4.6 mph - N/A Snow Light Snow
10:14 PM 6.8 °F -2.0 °F 3.2 °F 85% 29.80 in 5.0 mi SW 4.6 mph - N/A Snow Light Snow
10:34 PM 6.8 °F -0.1 °F 3.2 °F 85% 29.80 in 7.0 mi SSW 3.5 mph - N/A Snow Light Snow
10:54 PM 5.0 °F -4.1 °F 3.2 °F 92% 29.80 in 10.0 mi SW 4.6 mph - N/A Snow Light Snow
11:14 PM 6.8 °F -0.1 °F 3.2 °F 85% 29.80 in 7.0 mi SW 3.5 mph - N/A Snow Light Snow
11:34 PM 5.0 °F -4.1 °F 3.2 °F 92% 29.80 in 7.0 mi WSW 4.6 mph - N/A Snow Light Snow
11:54 PM 6.8 °F -0.1 °F 5.0 °F 92% 29.80 in 7.0 mi West 3.5 mph - N/A Snow Light Snow